Tracking 25648 objects as of 17-May-2022
HD Live streaming from Space Station
objects crossing your sky now

FLOCK 3K 12

Track FLOCK 3K 12 now!
10-day predictions
FLOCK 3K 12 is classified as:


NORAD ID: 43903
Int'l Code: 2018-111AD
Perigee: 449.2 km
Apogee: 471.9 km
Inclination: 97.2 °
Period: 93.7 minutes
Semi major axis: 6831 km
RCS: Unknown
Launch date: December 27, 2018
Source: United States (US)
Launch site: VOSTOCHNY COSMODROME (VOSTO)
aabbcc
Your satellite tracking list
Your tracking list is empty




NASA's NSSDC Master Catalog

Two Line Element Set (TLE):
1 43903U 18111AD  22136.49092949  .00042618  00000-0  11498-2 0  9997
2 43903  97.1982  28.1979 0016600 170.3790 189.7776 15.37524691188693
Source of the keplerian elements: AFSPC